NAY3KX GCHI-GCLP

Flight info

Callsign NAY3KX
Flight time 0h 43m
Altitude 13000
Route YELBE
Aircraft AT76/M-SDFGIRY/S

Departure

Time 2026-04-21 17:07
Airport El Hierro Airport (GCHI)

Arrival

Time 2026-04-21 17:50
Airport Gran Canaria Airport (GCLP)
Time Latitude Longitude Altitude Speed Heading
2026-04-21 16:35 27.81386 -17.88565 99 ft 0 kts 59°
2026-04-21 17:03 27.81387 -17.88564 99 ft 0 kts 56°
2026-04-21 17:03 27.81389 -17.88564 99 ft 0 kts 37°
2026-04-21 17:03 27.81397 -17.88565 99 ft 2 kts 350°
2026-04-21 17:04 27.81416 -17.88576 99 ft 5 kts 310°
2026-04-21 17:04 27.81399 -17.88637 100 ft 8 kts 242°
2026-04-21 17:04 27.81350 -17.88637 98 ft 11 kts 150°
2026-04-21 17:04 27.81264 -17.88587 99 ft 16 kts 153°
2026-04-21 17:05 27.81152 -17.88521 102 ft 20 kts 153°
2026-04-21 17:05 27.81031 -17.88454 109 ft 12 kts 162°
2026-04-21 17:05 27.80976 -17.88438 110 ft 6 kts 111°
2026-04-21 17:05 27.80987 -17.88427 110 ft 1 kts
2026-04-21 17:06 27.80989 -17.88428 110 ft 0 kts 349°
2026-04-21 17:06 27.80991 -17.88429 110 ft 0 kts 340°
2026-04-21 17:06 27.80996 -17.88432 110 ft 3 kts 334°
2026-04-21 17:06 27.81223 -17.88563 99 ft 70 kts 333°
2026-04-21 17:07 27.81585 -17.88773 97 ft 105 kts 330°
2026-04-21 17:07 27.82505 -17.89306 653 ft 115 kts 347°
2026-04-21 17:07 27.83308 -17.89291 1147 ft 119 kts 10°
2026-04-21 17:07 27.84098 -17.88924 1527 ft 132 kts 32°
2026-04-21 17:08 27.84606 -17.87942 1632 ft 163 kts 73°
2026-04-21 17:08 27.84567 -17.86550 1778 ft 185 kts 99°
2026-04-21 17:08 27.84271 -17.85178 2285 ft 180 kts 98°
2026-04-21 17:08 27.84018 -17.83793 2679 ft 181 kts 96°
2026-04-21 17:09 27.83638 -17.80948 3296 ft 187 kts 88°
2026-04-21 17:09 27.83599 -17.79474 3673 ft 187 kts 85°
2026-04-21 17:09 27.83599 -17.77990 4098 ft 186 kts 85°
2026-04-21 17:10 27.83631 -17.76536 4495 ft 187 kts 84°
2026-04-21 17:10 27.83660 -17.75064 4884 ft 188 kts 86°
2026-04-21 17:10 27.83668 -17.73577 5269 ft 188 kts 88°
2026-04-21 17:10 27.83667 -17.72108 5598 ft 191 kts 87°
2026-04-21 17:11 27.83671 -17.70595 5941 ft 191 kts 88°
2026-04-21 17:11 27.83686 -17.69077 6264 ft 192 kts 86°
2026-04-21 17:11 27.83696 -17.67575 6497 ft 195 kts 87°
2026-04-21 17:11 27.83682 -17.66034 6806 ft 191 kts 87°
2026-04-21 17:12 27.83668 -17.64588 7268 ft 181 kts 87°
2026-04-21 17:12 27.83662 -17.63156 7570 ft 182 kts 87°
2026-04-21 17:12 27.83656 -17.61721 7875 ft 181 kts 88°
2026-04-21 17:12 27.83654 -17.60301 8108 ft 186 kts 88°
2026-04-21 17:13 27.83654 -17.58857 8413 ft 186 kts 87°
2026-04-21 17:13 27.83655 -17.57387 8670 ft 188 kts 87°
2026-04-21 17:13 27.83655 -17.55905 8949 ft 190 kts 88°
2026-04-21 17:13 27.83653 -17.54360 9010 ft 204 kts 88°
2026-04-21 17:14 27.83653 -17.52710 9126 ft 212 kts 88°
2026-04-21 17:14 27.83654 -17.51050 9321 ft 215 kts 88°
2026-04-21 17:14 27.83655 -17.49353 9594 ft 215 kts 88°
2026-04-21 17:14 27.83654 -17.47649 9848 ft 215 kts 88°
2026-04-21 17:15 27.83654 -17.45956 10033 ft 217 kts 88°
2026-04-21 17:15 27.83655 -17.44270 10241 ft 218 kts 88°
2026-04-21 17:15 27.83655 -17.42548 10472 ft 217 kts 88°
2026-04-21 17:15 27.83654 -17.40825 10663 ft 218 kts 88°
2026-04-21 17:16 27.83652 -17.39140 10893 ft 216 kts 88°
2026-04-21 17:16 27.83513 -17.37438 11045 ft 219 kts 98°
2026-04-21 17:16 27.83230 -17.35730 11244 ft 219 kts 100°
2026-04-21 17:16 27.82938 -17.34060 11446 ft 220 kts 99°
2026-04-21 17:17 27.82653 -17.32353 11651 ft 220 kts 99°
2026-04-21 17:17 27.82389 -17.30647 11822 ft 222 kts 98°
2026-04-21 17:17 27.82139 -17.28933 12018 ft 222 kts 97°
2026-04-21 17:17 27.81897 -17.27217 12184 ft 222 kts 97°
2026-04-21 17:18 27.81650 -17.25485 12368 ft 223 kts 97°
2026-04-21 17:18 27.81405 -17.23761 12587 ft 222 kts 97°
2026-04-21 17:18 27.81159 -17.22025 12739 ft 224 kts 97°
2026-04-21 17:18 27.80924 -17.20294 12858 ft 228 kts 96°
2026-04-21 17:19 27.80687 -17.18503 12910 ft 233 kts 96°
2026-04-21 17:19 27.80438 -17.16666 12936 ft 239 kts 97°
2026-04-21 17:19 27.80173 -17.14802 12948 ft 244 kts 97°
2026-04-21 17:19 27.79898 -17.12875 12953 ft 249 kts 97°
2026-04-21 17:20 27.79619 -17.10923 12957 ft 253 kts 97°
2026-04-21 17:20 27.79338 -17.08968 12954 ft 256 kts 97°
2026-04-21 17:20 27.79049 -17.06970 12952 ft 257 kts 97°
2026-04-21 17:20 27.78764 -17.04987 12949 ft 259 kts 97°
2026-04-21 17:21 27.78471 -17.02971 12960 ft 260 kts 97°
2026-04-21 17:21 27.78179 -17.00946 12955 ft 261 kts 97°
2026-04-21 17:21 27.77889 -16.98940 12948 ft 261 kts 97°
2026-04-21 17:21 27.77596 -16.96909 12943 ft 261 kts 97°
2026-04-21 17:22 27.77401 -16.95569 12951 ft 261 kts 97°
2026-04-21 17:22 27.77010 -16.92874 12949 ft 261 kts 97°
2026-04-21 17:22 27.76714 -16.90833 12945 ft 261 kts 97°
2026-04-21 17:22 27.76422 -16.88832 12946 ft 261 kts 97°
2026-04-21 17:23 27.76127 -16.86803 12945 ft 261 kts 97°
2026-04-21 17:23 27.75832 -16.84778 12950 ft 261 kts 97°
2026-04-21 17:23 27.75540 -16.82780 12950 ft 261 kts 97°
2026-04-21 17:23 27.75244 -16.80756 12950 ft 260 kts 97°
2026-04-21 17:24 27.74949 -16.78734 12940 ft 261 kts 97°
2026-04-21 17:24 27.74652 -16.76709 12947 ft 260 kts 97°
2026-04-21 17:24 27.74359 -16.74706 12950 ft 260 kts 97°
2026-04-21 17:24 27.74062 -16.72686 12950 ft 260 kts 97°
2026-04-21 17:25 27.73762 -16.70656 12948 ft 261 kts 98°
2026-04-21 17:25 27.73450 -16.68662 12943 ft 261 kts 98°
2026-04-21 17:25 27.73126 -16.66642 12947 ft 261 kts 98°
2026-04-21 17:25 27.72807 -16.64610 12948 ft 261 kts 98°
2026-04-21 17:26 27.72481 -16.62615 12940 ft 262 kts 99°
2026-04-21 17:26 27.72152 -16.60585 12943 ft 262 kts 99°
2026-04-21 17:26 27.71824 -16.58563 12939 ft 262 kts 99°
2026-04-21 17:26 27.71496 -16.56535 12946 ft 262 kts 99°
2026-04-21 17:27 27.71171 -16.54526 12945 ft 262 kts 98°
2026-04-21 17:27 27.70842 -16.52503 12941 ft 262 kts 98°
2026-04-21 17:27 27.70513 -16.50475 12942 ft 262 kts 99°
2026-04-21 17:27 27.70188 -16.48474 12946 ft 262 kts 99°
2026-04-21 17:28 27.69859 -16.46443 12946 ft 262 kts 99°
2026-04-21 17:28 27.69530 -16.44421 12941 ft 262 kts 99°
2026-04-21 17:28 27.69208 -16.42434 12946 ft 262 kts 99°
2026-04-21 17:28 27.68878 -16.40404 12947 ft 262 kts 99°
2026-04-21 17:29 27.68546 -16.38374 12945 ft 262 kts 99°
2026-04-21 17:29 27.68217 -16.36365 12945 ft 262 kts 99°
2026-04-21 17:29 27.67998 -16.35019 12944 ft 262 kts 99°
2026-04-21 17:29 27.67666 -16.32988 12943 ft 263 kts 99°
2026-04-21 17:30 27.67654 -16.32918 12944 ft 263 kts 99°
2026-04-21 17:31 27.67544 -16.32238 12942 ft 263 kts 99°
2026-04-21 17:31 27.67249 -16.30270 12944 ft 263 kts 98°
2026-04-21 17:32 27.66967 -16.28266 12948 ft 263 kts 98°
2026-04-21 17:32 27.66685 -16.26212 12946 ft 264 kts 98°
2026-04-21 17:32 27.66405 -16.24183 12945 ft 264 kts 98°
2026-04-21 17:32 27.66127 -16.22171 12946 ft 264 kts 98°
2026-04-21 17:33 27.66062 -16.21699 12941 ft 264 kts 98°
2026-04-21 17:33 27.65947 -16.20852 12942 ft 264 kts 97°
2026-04-21 17:33 27.65672 -16.18835 12937 ft 264 kts 97°
2026-04-21 17:33 27.65330 -16.16825 12944 ft 264 kts 100°
2026-04-21 17:34 27.64939 -16.14815 12942 ft 263 kts 104°
2026-04-21 17:34 27.64468 -16.12821 12947 ft 263 kts 104°
2026-04-21 17:34 27.64027 -16.10808 12953 ft 263 kts 102°
2026-04-21 17:34 27.63651 -16.08802 12951 ft 263 kts 100°
2026-04-21 17:35 27.63315 -16.06764 12943 ft 264 kts 99°
2026-04-21 17:35 27.63012 -16.04720 12941 ft 263 kts 98°
2026-04-21 17:35 27.62703 -16.02704 12947 ft 263 kts 99°
2026-04-21 17:35 27.62371 -16.00668 12947 ft 264 kts 100°
2026-04-21 17:36 27.62255 -15.99985 12948 ft 264 kts 100°
2026-04-21 17:36 27.61917 -15.97941 12944 ft 264 kts 99°
2026-04-21 17:36 27.61585 -15.95902 12943 ft 264 kts 99°
2026-04-21 17:36 27.61257 -15.93881 12946 ft 265 kts 99°
2026-04-21 17:37 27.60971 -15.92123 12943 ft 265 kts 99°
2026-04-21 17:37 27.60637 -15.90080 12937 ft 265 kts 99°
2026-04-21 17:37 27.60305 -15.88070 12938 ft 265 kts 100°
2026-04-21 17:37 27.59970 -15.86059 12939 ft 265 kts 100°
2026-04-21 17:38 27.59679 -15.84313 12944 ft 265 kts 100°
2026-04-21 17:38 27.59336 -15.82289 12941 ft 266 kts 100°
2026-04-21 17:38 27.59194 -15.81450 12939 ft 266 kts 100°
2026-04-21 17:39 27.58846 -15.79406 12940 ft 266 kts 100°
2026-04-21 17:39 27.58499 -15.77375 12941 ft 266 kts 100°
2026-04-21 17:39 27.58142 -15.75317 12936 ft 266 kts 100°
2026-04-21 17:39 27.57783 -15.73277 12843 ft 269 kts 100°
2026-04-21 17:40 27.57426 -15.71193 12726 ft 273 kts 100°
2026-04-21 17:40 27.57061 -15.69026 12225 ft 289 kts 100°
2026-04-21 17:40 27.56682 -15.66767 11709 ft 300 kts 100°
2026-04-21 17:40 27.56298 -15.64430 11200 ft 308 kts 99°
2026-04-21 17:41 27.55944 -15.62062 10701 ft 301 kts 98°
2026-04-21 17:41 27.55610 -15.59745 10147 ft 295 kts 98°
2026-04-21 17:41 27.55293 -15.57504 9590 ft 290 kts 98°
2026-04-21 17:41 27.54975 -15.55270 8997 ft 285 kts 98°
2026-04-21 17:42 27.54678 -15.53068 8412 ft 282 kts 97°
2026-04-21 17:42 27.54366 -15.50924 7848 ft 279 kts 98°
2026-04-21 17:42 27.54039 -15.48779 7289 ft 276 kts 98°
2026-04-21 17:42 27.53796 -15.46639 6754 ft 273 kts 85°
2026-04-21 17:43 27.54395 -15.44688 6234 ft 266 kts 51°
2026-04-21 17:43 27.55819 -15.43438 5654 ft 258 kts 17°
2026-04-21 17:43 27.57554 -15.43269 5111 ft 247 kts 351°
2026-04-21 17:43 27.59218 -15.43550 4698 ft 240 kts 347°
2026-04-21 17:44 27.60829 -15.43900 4424 ft 230 kts 345°
2026-04-21 17:44 27.62391 -15.44268 4147 ft 227 kts 345°
2026-04-21 17:44 27.63909 -15.44640 3922 ft 228 kts 345°
2026-04-21 17:44 27.65457 -15.45027 3692 ft 228 kts 345°
2026-04-21 17:45 27.67012 -15.45406 3531 ft 226 kts 344°
2026-04-21 17:45 27.68548 -15.45772 3463 ft 226 kts 345°
2026-04-21 17:45 27.70081 -15.46138 3398 ft 226 kts 345°
2026-04-21 17:45 27.71633 -15.46511 3334 ft 228 kts 345°
2026-04-21 17:46 27.73161 -15.46880 3240 ft 229 kts 345°
2026-04-21 17:46 27.74713 -15.47014 3131 ft 229 kts
2026-04-21 17:46 27.76219 -15.46391 3072 ft 228 kts 21°
2026-04-21 17:46 27.77583 -15.45697 3005 ft 199 kts 21°
2026-04-21 17:47 27.78803 -15.45078 2866 ft 195 kts 22°
2026-04-21 17:47 27.80058 -15.44426 2699 ft 198 kts 21°
2026-04-21 17:47 27.81335 -15.43873 2571 ft 195 kts 20°
2026-04-21 17:47 27.82594 -15.43351 2409 ft 187 kts 18°
2026-04-21 17:48 27.83388 -15.43029 2190 ft 178 kts 21°
2026-04-21 17:48 27.84791 -15.42346 1917 ft 156 kts 21°
2026-04-21 17:48 27.85769 -15.41904 1630 ft 153 kts 19°
2026-04-21 17:48 27.86750 -15.41508 1377 ft 145 kts 20°
2026-04-21 17:49 27.87662 -15.41092 1244 ft 133 kts 22°
2026-04-21 17:49 27.88457 -15.40723 1053 ft 119 kts 22°
2026-04-21 17:49 27.89207 -15.40409 826 ft 114 kts 19°
2026-04-21 17:49 27.89937 -15.40084 544 ft 111 kts 19°
2026-04-21 17:50 27.90641 -15.39782 399 ft 108 kts 18°
2026-04-21 17:50 27.91323 -15.39480 254 ft 107 kts 17°
2026-04-21 17:50 27.92012 -15.39177 101 ft 105 kts 18°
2026-04-21 17:50 27.92580 -15.38933 64 ft 47 kts 20°
2026-04-21 17:51 27.92819 -15.38826 60 ft 45 kts 22°
2026-04-21 17:51 27.93101 -15.38723 58 ft 34 kts
2026-04-21 17:51 27.93272 -15.38738 66 ft 13 kts 351°
2026-04-21 17:51 27.93329 -15.38748 69 ft 5 kts 350°
2026-04-21 17:52 27.93360 -15.38754 71 ft 5 kts 352°
2026-04-21 17:52 27.93420 -15.38750 66 ft 13 kts 17°
2026-04-21 17:52 27.93522 -15.38703 74 ft 19 kts 21°
2026-04-21 17:52 27.93654 -15.38645 70 ft 23 kts 21°
2026-04-21 17:53 27.93804 -15.38580 71 ft 20 kts 22°
2026-04-21 17:53 27.93936 -15.38520 69 ft 22 kts 21°
2026-04-21 17:53 27.94033 -15.38490 70 ft 9 kts 338°
2026-04-21 17:53 27.94065 -15.38546 67 ft 11 kts 291°
2026-04-21 17:54 27.94065 -15.38620 71 ft 9 kts 235°
2026-04-21 17:54 27.94040 -15.38674 82 ft 4 kts 289°
2026-04-21 17:54 27.94048 -15.38697 82 ft 7 kts 291°
2026-04-21 17:54 27.94053 -15.38714 81 ft 0 kts 291°